STARLINK-1921 (46752 NORAD) Tracking and Keplerian Element Data
This shows tracking and keplerian element data for the satellite.
Feedback or suggestion? Click here.
Element | Value |
Catalog | 46752 |
Name | STARLINK-1921 |
Epoch Orbit | 1381 |
Epoch Day | 17.91667824 |
Epoch Year | 2021 |
RAAN | 106.8098 |
Inclination | 53.054 |
Eccentricity | 0.000161 |
Argument of Perigee | 57.6687 |
Mean Anonmoly | 148.1791 |
Mean Motion | 15.1094427 |
Decay Rate | -0.01055849 |
L1 | 1 46752U 20074P 21017.91667824 -.01055849 00000-0 -67534-1 0 9991 |
L2 | 2 46752 53.0540 106.8098 0001610 57.6687 148.1791 15.10944270 13819 |
Live tracking and technical data element details for STARLINK-1921 (NORAD 46752). STARLINK-1921 can be tracked NOW for your location showing map with azimuth and elevation plus other details from your city location.
Track the satellite on the map from your city or location and see movement details for azimuth, elevation, latitude, longitude, range, height, and movement on the map or in text.
IsCatalogInMostPopularTable: catalog: 46752, numindb: 34
Update: records affected: 1
GetName: 46752 STARLINK-1921
Hit Count: updated at: Mon, 18 Jan 2021 16:12:23 GMT